Flag for Germany Weather past 2 weeks in Leverkusen, North Rhine-Westphalia, Germany

Now
61 °F

Sunny.


Feels Like: 61 °F
Forecast: 53 / 68 °F
Wind: 15 mph from South

Location: Koeln / Bonn

Current Time: Jun 2, 2015 at 11:48:47 AM

Latest Report: Jun 2, 2015 at 11:20 AM


Visibility: 10 mi

Pressure: 29.92 "Hg

Humidity: 68%

Dew point: 50 °F

Location of LeverkusenLocation

Historic Weather in Leverkusen — Graph

°F

Leverkusen temperature yesterday

Maximum temperature yesterday: 64 °F (at 3:50 PM)
Minimum temperature yesterday: 50 °F (at 4:50 AM)
Average temperature yesterday: 57 °F

Past Weeks' High & Low Weather Summary

 TemperatureHumidityPressure
High73 °F (May 18, 4:20 PM)94% (May 25, 12:50 PM)30.33 "Hg (May 25, 12:50 PM)
Low41 °F (May 20, 5:50 AM)30% (May 22, 1:50 PM)29.65 "Hg (May 18, 7:20 PM)
Average56 °F64%30.02 "Hg
* Reported May 18 10:20 AM — Jun 2 10:20 AM, Leverkusen, Weather by CustomWeather, © 2015

Note: Actual official high and low records may vary slightly from our data, if they occured in-between our weather recording intervals... More about our weather records

Advertising

Leverkusen weather history for previous 24 hours

 ConditionsComfort  
Time TempWeatherWind HumidityBarometerVisibility
10:20 AM
Tue, Jun 2
57 °FSunny.12 mph82%29.92 "Hg10 mi
9:50 AM57 °FSunny.14 mph82%29.92 "Hg10 mi
9:20 AM55 °FLight rain. Clear.13 mph82%29.92 "HgN/A
8:50 AM55 °FLight rain. Clear.13 mph82%29.92 "HgN/A
8:20 AM54 °FLight rain. Clear.13 mph88%29.92 "HgN/A
7:50 AM54 °FLight rain. Clear.10 mph88%29.92 "HgN/A
7:20 AM52 °FLight rain. Clear.10 mph94%29.92 "HgN/A
6:50 AM52 °FLight rain. Overcast.12 mph88%29.89 "HgN/A
6:20 AM52 °FLight rain. Clear.10 mph82%29.92 "HgN/A
5:20 AM52 °FClear.9 mph77%29.92 "Hg10 mi
4:50 AM50 °FClear.8 mph82%29.92 "Hg10 mi
4:20 AM50 °FClear.9 mph82%29.92 "Hg10 mi
3:50 AM50 °FClear.9 mph76%29.95 "Hg10 mi
3:20 AM50 °FClear.9 mph76%29.95 "Hg10 mi
2:50 AM48 °FClear.8 mph76%29.95 "Hg10 mi
2:20 AM48 °FClear.9 mph71%29.95 "Hg10 mi
1:50 AM52 °FClear.9 mph67%29.95 "Hg10 mi
1:20 AM48 °FClear.8 mph76%29.95 "Hg10 mi
12:50 AM48 °FClear.7 mph76%29.98 "Hg10 mi
12:20 AM48 °FClear.9 mph76%29.98 "Hg10 mi
11:50 PM
Mon, Jun 1
50 °FClear.7 mph71%29.98 "Hg10 mi
11:20 PM50 °FClear.8 mph71%29.98 "Hg10 mi
10:50 PM54 °FClear.8 mph67%29.98 "Hg10 mi
10:20 PM52 °FSunny.7 mph72%29.98 "Hg10 mi
9:50 PM54 °FPassing clouds.5 mph77%29.98 "HgN/A
9:20 PM55 °FScattered clouds.3 mph77%29.95 "HgN/A
8:50 PM57 °FPassing clouds.3 mph72%29.95 "HgN/A
8:20 PM61 °FPassing clouds.3 mph59%29.98 "HgN/A
7:50 PM61 °FPassing clouds.3 mph55%29.98 "HgN/A
7:20 PM61 °FPartly sunny.6 mph55%29.98 "HgN/A
6:50 PM63 °FPartly sunny.7 mph52%29.98 "HgN/A
6:20 PM64 °FBroken clouds.7 mph46%29.98 "HgN/A
5:50 PM63 °FBroken clouds.5 mph49%30.01 "HgN/A
5:20 PM64 °FBroken clouds.7 mph46%30.01 "HgN/A
4:50 PM64 °FBroken clouds.5 mph43%30.01 "HgN/A
4:20 PM64 °FBroken clouds.5 mph49%30.01 "HgN/A
3:50 PM64 °FBroken clouds.6 mph43%30.04 "HgN/A
3:20 PM63 °FBroken clouds.3 mph45%30.04 "HgN/A
2:50 PM61 °FBroken clouds.3 mph48%30.04 "HgN/A
2:20 PM61 °FPartly sunny.3 mph45%30.04 "HgN/A
1:50 PM61 °FPartly sunny.5 mph52%30.04 "HgN/A
1:20 PM59 °FPartly sunny.5 mph51%30.04 "HgN/A
12:50 PM59 °FBroken clouds.3 mph59%30.04 "HgN/A
12:20 PM59 °FBroken clouds.3 mph59%30.04 "HgN/A
11:50 AM57 °FBroken clouds.2 mph63%30.04 "HgN/A
11:20 AM57 °FBroken clouds.2 mph63%30.04 "HgN/A
Weather by CustomWeather, © 2015

See weather overviewHow to use our weather pages